Regional Weather Roundup
Issued by NWS

Home | Current Version | Previous Version | Graphics & Text | Print | Product List | Glossary On
Versions: 1 2 3 4 5 6 7 8 9 10 11 12 13 14 15 16 17 18 19 20 21 22 23 24 25 26 27 28 29 30 31 32 33 34 35 36 37 38 39 40 41 42 43 44 45 46 47 48 49 50
000
ASUS45 KPSR 300810
RWRAZ

ARIZONA HOURLY REGIONAL WEATHER ROUNDUP
NATIONAL WEATHER SERVICE PHOENIX AZ
100 AM MST MON MAY 30 2016

NOTE: FAIR INDICATES FEW OR NO CLOUDS BELOW 12,000 FEET WITH NO
SIGNIFICANT WEATHER AND/OR OBSTRUCTIONS TO VISIBILITY.

AZZ001>003-036-300900-
NORTHWEST ARIZONA

CITY           SKY/WX    TMP DP  RH WIND       PRES   REMARKS
KINGMAN        CLEAR     60  21  22 SE12      29.98F
$$

AZZ004>008-015-016-018-300900-
NORTH CENTRAL ARIZONA

CITY           SKY/WX    TMP DP  RH WIND       PRES   REMARKS
GRAND CANYON   PTCLDY    38  16  40 CALM      30.18S
WILLIAMS       CLEAR     39  16  38 S8        30.24S WCI  34
PRESCOTT       CLEAR     54  19  25 S8        30.07F
FLAGSTAFF      CLEAR     39  17  41 CALM      30.17F
PAYSON         CLEAR     59  18  20 CALM      30.10S
PAGE           PTCLDY    73  30  20 W5        29.98R
$$

AZZ009>014-017-300900-
NORTHEAST ARIZONA

CITY           SKY/WX    TMP DP  RH WIND       PRES   REMARKS
WINSLOW        CLEAR     56  17  21 CALM      30.06S
SAINT JOHNS    PTCLDY    52  18  26 S5        30.11F
WINDOW ROCK    CLEAR     55  13  18 SE3       30.16F
SHOW LOW       CLEAR     46  14  27 CALM      30.17S
$$

AZZ023-300900-
GREATER PHOENIX AREA

CITY           SKY/WX    TMP DP  RH WIND       PRES   REMARKS
PHOENIX        CLEAR     82  21  10 W8        29.85S
BUCKEYE        CLEAR     70  25  18 S6        29.88R
LUKE AFB       CLEAR     78  21  12 S10       29.85R
DEER VALLEY    CLEAR     74  20  13 E3        29.88R
SCOTTSDALE     CLEAR     77  24  14 CALM      29.90R
MESA-GATEWAY   CLEAR     72  23  16 E7        29.89F
$$

AZZ027-028-300900-
SOUTHWEST MARICOPA COUNTY AND PINAL COUNTY

CITY           SKY/WX    TMP DP  RH WIND       PRES   REMARKS
CASA GRANDE    CLEAR     72  25  17 SW5       29.91S
GILA BEND      FAIR      69  12  11 S7        29.85S
$$

AZZ503-504-507>509-300900-
SOUTHEAST ARIZONA

CITY           SKY/WX    TMP DP  RH WIND       PRES   REMARKS
TUCSON         CLEAR     73  29  19 S5        29.98S
DAVIS-MONTHAN  CLEAR     67  28  22 S2        29.96F
NOGALES        CLEAR     64  32  30 CALM      30.04F
SIERRA VISTA   CLEAR     67  40  36 SW9       30.09S
DOUGLAS        PTCLDY    65  35  33 E3        30.05F
SAFFORD        PTCLDY    73  15  11 NW9       29.97R
$$

AZZ020-021-025-026-031-300900-
SOUTHWEST ARIZONA

CITY           SKY/WX    TMP DP  RH WIND       PRES   REMARKS
YUMA           CLEAR     70  42  36 SW3       29.84R
$$

CAZ031-033-041-043-047-048-061-300900-
SOUTHERN CALIFORNIA

CITY           SKY/WX    TMP DP  RH WIND       PRES   REMARKS
DOWNTOWN L.A.  CLEAR     60  54  80 W5        30.00S
L.A. AIRPORT   MOCLDY    59  54  83 W9        30.01S
SAN DIEGO      CLOUDY    64  56  75 NW6       30.02S
BURBANK        CLEAR     58  51  78 CALM      29.99S
ONTARIO        CLEAR     58  51  78 W5        30.00S
RIVERSIDE      CLEAR     59  52  77 W3        30.00S
PALM SPRINGS   CLEAR     73  51  46 NW10      29.85S
EL CENTRO NAS  CLEAR     73  45  36 W9        29.82F
IMPERIAL       CLEAR     73  47  39 W7        29.80S
BLYTHE         CLEAR     79  42  26 W8        29.81S
NEEDLES        CLEAR     76  26  15 CALM      29.83S
$$

NVZ020-UTZ003-300900-
SOUTHERN NEVADA-UTAH

CITY           SKY/WX    TMP DP  RH WIND       PRES   REMARKS
LAS VEGAS      CLEAR     78  19  11 S6        29.85S
SALT LAKE CITY CLOUDY    63  43  48 NE16      30.08F
$$

NMZ009-TXZ055-300900-
NEW MEXICO-WEST TEXAS

CITY           SKY/WX    TMP DP  RH WIND       PRES   REMARKS
ALBUQUERQUE    CLOUDY    64  16  15 SE3       30.08S
EL PASO        PTCLDY    75  40  28 SE9       30.02F
$$


........................KEY........................
SKY/WX - SKY CONDITION/WEATHER
TMP    - TEMPERATURE IN FAHRENHEIT
DP     - DEW POINT IN FAHRENHEIT
RH     - RELATIVE HUMIDITY IN PERCENT
WIND   - DIRECTION AND SPEED IN MILES PER HOUR (MPH)
VRB    - VARIABLE WIND DIRECTION
PRES   - MEAN SEA LEVEL PRESSURE IN INCHES OF MERCURY
         F - FALLING PRESSURE   R - RISING PRESSURE
         S - STEADY PRESSURE
VSB    - VISIBILITY IN MILES
HX     - HEAT INDEX IN FAHRENHEIT
WCI    - WIND CHILL INDEX IN FAHRENHEIT
TC     - TEMPERATURE IN CELSIUS WHICH IS ALSO KNOWN AS
         TEMPERATURE IN CENTIGRADE
AFB    - AIR FORCE BASE
         LUKE AFB IS LUKE AIR FORCE BASE
         DAVIS-MONTHAN IS DAVIS-MONTHAN AIR FORCE BASE
NAS    - NAVAL AIR STATION
         EL CENTRO NAS IS EL CENTRO NAVAL AIR STATION
N/A    - NOT AVAILABLE




USA.gov is the U.S. government's official web portal to all federal, state and local government web resources and services.